When you browse on this site, cookies collect data to enhance your experience and personalize the content and advertising you see.
Visit our Privacy Policy to learn more. By continuing to use the site, you agree to this use of cookies and data.
  • In Deutschland
  • Länderverzeichnis
  • Für 7 Tage
  • Wassertemperatur
  • Satellitenkarten
  • Wetterkarte
  • Widgets
  • user-avatar
    Anmelden

    Stündliche Wetter Brisbane

    Heute, 20 März, Mittwoch

    Zeit Temperatur Niederschläge Wind Luftdruck Luftfeuchtigkeit
    00:00 +25°C° 0 mm 2 m/S 756 mmHg 80%
    01:00 +25°C° 0 mm 2 m/S 756 mmHg 80%
    02:00 +24°C° 0 mm 2 m/S 756 mmHg 81%
    03:00 +24°C° 0 mm 1 m/S 756 mmHg 81%
    04:00 +24°C° 0 mm 1 m/S 756 mmHg 81%
    05:00 +24°C° 0 mm 1 m/S 756 mmHg 80%
    06:00 +24°C° 0 mm 1 m/S 757 mmHg 78%
    07:00 +25°C° 0 mm 1 m/S 757 mmHg 77%
    08:00 +28°C° 0 mm 1 m/S 757 mmHg 66%
    09:00 +30°C° 0 mm 1 m/S 757 mmHg 55%
    10:00 +31°C° 0 mm 0 m/S 757 mmHg 48%
    11:00 +34°C° 0 mm 1 m/S 757 mmHg 43%
    12:00 +36°C° 0 mm 1 m/S 756 mmHg 38%
    13:00 +38°C° 0 mm 2 m/S 756 mmHg 33%
    14:00 +36°C° 0 mm 3 m/S 756 mmHg 44%
    15:00 +33°C° 0 mm 4 m/S 756 mmHg 54%
    16:00 +30°C° 0 mm 4 m/S 756 mmHg 68%
    17:00 +28°C° 0.1 mm 4 m/S 756 mmHg 73%
    18:00 +27°C° 0.1 mm 3 m/S 756 mmHg 78%
    19:00 +26°C° 0.1 mm 3 m/S 757 mmHg 84%
    20:00 +26°C° 0.4 mm 3 m/S 757 mmHg 85%
    21:00 +26°C° 0.4 mm 3 m/S 757 mmHg 87%
    22:00 +25°C° 0 mm 2 m/S 758 mmHg 88%
    23:00 +25°C° 0.4 mm 2 m/S 758 mmHg 88%

    Morgen, 21 März, Donnerstag

    Zeit Temperatur Niederschläge Wind Luftdruck Luftfeuchtigkeit
    00:00 +25°C° 0.4 mm 3 m/S 757 mmHg 89%
    01:00 +25°C° 0.4 mm 3 m/S 757 mmHg 89%
    02:00 +24°C° 0.3 mm 3 m/S 757 mmHg 89%
    03:00 +24°C° 0.3 mm 3 m/S 757 mmHg 90%
    04:00 +24°C° 0.3 mm 3 m/S 758 mmHg 90%
    05:00 +24°C° 0.2 mm 2 m/S 758 mmHg 89%
    06:00 +24°C° 0.2 mm 2 m/S 758 mmHg 89%
    07:00 +25°C° 0.2 mm 2 m/S 758 mmHg 88%
    08:00 +26°C° 0 mm 2 m/S 758 mmHg 81%
    09:00 +28°C° 0 mm 2 m/S 758 mmHg 73%
    10:00 +30°C° 0 mm 2 m/S 758 mmHg 66%
    11:00 +30°C° 0.1 mm 2 m/S 758 mmHg 65%
    12:00 +31°C° 0.1 mm 3 m/S 758 mmHg 64%
    13:00 +31°C° 0.1 mm 3 m/S 758 mmHg 64%
    14:00 +32°C° 0.5 mm 4 m/S 757 mmHg 66%
    15:00 +30°C° 0.5 mm 4 m/S 757 mmHg 68%
    16:00 +30°C° 0.5 mm 4 m/S 757 mmHg 71%
    17:00 +29°C° 0.9 mm 3 m/S 758 mmHg 75%
    18:00 +27°C° 0.9 mm 3 m/S 758 mmHg 80%
    19:00 +26°C° 0.9 mm 3 m/S 758 mmHg 84%
    20:00 +26°C° 0.6 mm 3 m/S 759 mmHg 86%
    21:00 +26°C° 0.6 mm 3 m/S 759 mmHg 87%
    22:00 +25°C° 0.6 mm 3 m/S 759 mmHg 88%
    23:00 +25°C° 1.4 mm 2 m/S 759 mmHg 89%

    übermorgen, 22 März, Freitag

    Zeit Temperatur Niederschläge Wind Luftdruck Luftfeuchtigkeit
    00:00 +25°C° 1.4 mm 1 m/S 759 mmHg 90%
    01:00 +25°C° 1.4 mm 1 m/S 759 mmHg 90%
    02:00 +24°C° 0.6 mm 1 m/S 759 mmHg 91%
    03:00 +24°C° 0.6 mm 1 m/S 759 mmHg 92%
    04:00 +24°C° 0.6 mm 1 m/S 759 mmHg 93%
    05:00 +24°C° 0.4 mm 1 m/S 760 mmHg 92%
    06:00 +24°C° 0.4 mm 1 m/S 760 mmHg 92%
    07:00 +24°C° 0.4 mm 1 m/S 761 mmHg 91%
    08:00 +26°C° 0.2 mm 1 m/S 761 mmHg 84%
    09:00 +28°C° 0.2 mm 1 m/S 761 mmHg 76%
    10:00 +30°C° 0.2 mm 1 m/S 761 mmHg 69%
    11:00 +30°C° 0.3 mm 1 m/S 760 mmHg 66%
    12:00 +31°C° 0.3 mm 2 m/S 760 mmHg 64%
    13:00 +31°C° 0.3 mm 2 m/S 759 mmHg 61%
    14:00 +31°C° 0.3 mm 2 m/S 759 mmHg 61%
    15:00 +31°C° 0.3 mm 2 m/S 758 mmHg 62%
    16:00 +30°C° 0.3 mm 3 m/S 758 mmHg 62%
    17:00 +29°C° 0 mm 3 m/S 758 mmHg 68%
    18:00 +28°C° 0 mm 3 m/S 758 mmHg 73%
    19:00 +26°C° 0 mm 3 m/S 759 mmHg 78%
    20:00 +26°C° 0.1 mm 2 m/S 759 mmHg 79%
    21:00 +26°C° 0.1 mm 2 m/S 760 mmHg 80%
    22:00 +26°C° 0.1 mm 2 m/S 760 mmHg 81%
    23:00 +26°C° 0.4 mm 2 m/S 760 mmHg 83%

    23 März, Samstag

    Zeit Temperatur Niederschläge Wind Luftdruck Luftfeuchtigkeit
    00:00 +26°C° 0.4 mm 2 m/S 760 mmHg 85%
    01:00 +25°C° 0.4 mm 2 m/S 759 mmHg 87%
    02:00 +25°C° 1.9 mm 2 m/S 759 mmHg 88%
    03:00 +25°C° 1.9 mm 2 m/S 759 mmHg 88%
    04:00 +24°C° 1.9 mm 2 m/S 759 mmHg 89%
    05:00 +24°C° 0.2 mm 2 m/S 759 mmHg 88%
    06:00 +25°C° 0.2 mm 1 m/S 760 mmHg 87%
    07:00 +25°C° 0.2 mm 1 m/S 760 mmHg 86%
    08:00 +27°C° 0 mm 1 m/S 760 mmHg 76%
    09:00 +30°C° 0 mm 1 m/S 760 mmHg 66%
    10:00 +30°C° 0 mm 0 m/S 760 mmHg 55%
    11:00 +33°C° 0 mm 1 m/S 759 mmHg 52%
    12:00 +34°C° 0 mm 1 m/S 759 mmHg 49%
    13:00 +35°C° 0 mm 2 m/S 758 mmHg 46%
    14:00 +34°C° 0 mm 3 m/S 758 mmHg 50%
    15:00 +33°C° 0 mm 3 m/S 757 mmHg 54%
    16:00 +33°C° 0 mm 4 m/S 757 mmHg 59%
    17:00 +30°C° 0.1 mm 4 m/S 757 mmHg 66%
    18:00 +28°C° 0.1 mm 4 m/S 758 mmHg 73%
    19:00 +27°C° 0.1 mm 3 m/S 758 mmHg 79%
    20:00 +27°C° 0 mm 3 m/S 759 mmHg 81%
    21:00 +26°C° 0 mm 2 m/S 759 mmHg 83%
    22:00 +26°C° 0 mm 2 m/S 760 mmHg 85%
    23:00 +26°C° 0 mm 2 m/S 759 mmHg 87%

    24 März, Sonntag

    Zeit Temperatur Niederschläge Wind Luftdruck Luftfeuchtigkeit
    00:00 +25°C° 0 mm 2 m/S 759 mmHg 88%
    01:00 +25°C° 0 mm 1 m/S 759 mmHg 89%
    02:00 +25°C° 0 mm 1 m/S 759 mmHg 90%
    03:00 +25°C° 0 mm 1 m/S 759 mmHg 91%
    04:00 +24°C° 0 mm 1 m/S 759 mmHg 91%
    05:00 +25°C° 0 mm 1 m/S 759 mmHg 90%
    06:00 +25°C° 0 mm 1 m/S 760 mmHg 88%
    07:00 +25°C° 0 mm 1 m/S 760 mmHg 87%
    08:00 +27°C° 0 mm 1 m/S 760 mmHg 77%
    09:00 +30°C° 0 mm 1 m/S 760 mmHg 67%
    10:00 +32°C° 0 mm 1 m/S 760 mmHg 56%
    11:00 +34°C° 0 mm 1 m/S 759 mmHg 51%
    12:00 +35°C° 0 mm 1 m/S 759 mmHg 46%
    13:00 +37°C° 0 mm 1 m/S 758 mmHg 40%
    14:00 +37°C° 0 mm 2 m/S 758 mmHg 44%
    15:00 +36°C° 0 mm 3 m/S 757 mmHg 48%
    16:00 +34°C° 0 mm 3 m/S 757 mmHg 52%
    17:00 +33°C° 0 mm 3 m/S 758 mmHg 61%
    18:00 +30°C° 0 mm 3 m/S 758 mmHg 69%
    19:00 +28°C° 0 mm 3 m/S 759 mmHg 78%
    20:00 +27°C° 0 mm 3 m/S 759 mmHg 81%
    21:00 +27°C° 0 mm 3 m/S 760 mmHg 83%
    22:00 +27°C° 0 mm 2 m/S 760 mmHg 85%
    23:00 +26°C° 0 mm 2 m/S 760 mmHg 87%

    25 März, Montag

    Zeit Temperatur Niederschläge Wind Luftdruck Luftfeuchtigkeit
    00:00 +26°C° 0 mm 2 m/S 760 mmHg 88%
    01:00 +26°C° 0 mm 2 m/S 760 mmHg 89%
    02:00 +25°C° 0 mm 2 m/S 760 mmHg 90%
    03:00 +25°C° 0 mm 1 m/S 760 mmHg 91%
    04:00 +25°C° 0 mm 1 m/S 760 mmHg 91%
    05:00 +25°C° 0 mm 1 m/S 760 mmHg 90%
    06:00 +25°C° 0 mm 1 m/S 760 mmHg 88%
    07:00 +26°C° 0 mm 1 m/S 761 mmHg 87%
    08:00 +27°C° 0 mm 1 m/S 760 mmHg 78%
    09:00 +29°C° 0 mm 2 m/S 760 mmHg 69%
    10:00 +31°C° 0 mm 2 m/S 760 mmHg 60%
    11:00 +32°C° 0 mm 2 m/S 760 mmHg 56%
    12:00 +34°C° 0 mm 3 m/S 759 mmHg 53%
    13:00 +34°C° 0 mm 3 m/S 758 mmHg 49%
    14:00 +34°C° 0 mm 4 m/S 758 mmHg 52%
    15:00 +33°C° 0 mm 4 m/S 758 mmHg 55%
    16:00 +32°C° 0 mm 4 m/S 757 mmHg 58%
    17:00 +30°C° 0 mm 4 m/S 758 mmHg 63%
    18:00 +28°C° 0 mm 4 m/S 758 mmHg 69%
    19:00 +27°C° 0 mm 4 m/S 759 mmHg 74%
    20:00 +27°C° 0 mm 3 m/S 759 mmHg 75%
    21:00 +27°C° 0 mm 3 m/S 759 mmHg 76%
    22:00 +26°C° 0 mm 3 m/S 760 mmHg 78%
    23:00 +26°C° 0 mm 3 m/S 759 mmHg 79%
    Mehr zeigen